Preview of NWS' New Version of Forecast
This preview is not operational and should not be used for support decisions.

Regional Weather Roundup (RWR)

Issued by Philadelphia/Mt Holly (PHI)

                            
000
ASUS41 KPHI 170912
RWRPHI

REGIONAL WEATHER ROUNDUP
NATIONAL WEATHER SERVICE MOUNT HOLLY NJ
500 AM EDT TUE SEP 17 2019

NOTE:  "FAIR" INDICATES FEW OR NO CLOUDS BELOW 12,000 FEET WITH NO
SIGNIFICANT WEATHER AND/OR OBSTRUCTIONS TO VISIBILITY.

 * = STATION DOES NOT REPORT PRECIPITATION (E.G. RAIN, SNOW, ETC.) 
        OR FOG.

NJZ015>026-171000-
SOUTHERN NEW JERSEY
  
CITY           SKY/WX    TMP DP  RH WIND       PRES   REMARKS
POMONA         CLOUDY    69  59  70 NE3       30.04R                  
WILDWOOD*      CLOUDY    70  65  84 E10       30.03R                  
MILLVILLE      CLOUDY   N/A N/A N/A NE8       30.03R                  
MOUNT HOLLY    CLOUDY    68  62  81 NE3       30.06R                  
TRENTON        CLOUDY    66  57  72 NE7       30.07R                  

$$
NJZ001>014-171000-
NORTHERN NEW JERSEY
  
CITY           SKY/WX    TMP DP  RH WIND       PRES   REMARKS
SUSSEX         FOG       52  50  93 CALM      30.12R VSB 1/4          
ANDOVER*         N/A     57  56  96 VRB5      30.12R                  
MORRISTOWN     FAIR      54  54 100 CALM      30.10R                  
NEWARK         FAIR      63  53  70 N12       30.08S                  
TETERBORO      FAIR      61  53  75 N5        30.08S                  
CALDWELL       FAIR      61  56  83 N3        30.11R                  
SOMERVILLE     FAIR      63  56  78 N3        30.08R                  
ALLAIRE*       CLOUDY    67  56  67 NE10      30.08S                  
TOMS RIVER*    MOCLDY    66  60  81 NE7       30.07R                  

$$
PAZ043-044-047-054-055-060>062-066>071-171000-
EASTERN PENNSYLVANIA
  
CITY           SKY/WX    TMP DP  RH WIND       PRES   REMARKS
PHILADELPHIA   MOCLDY    70  63  78 NE9       30.06S                  
NORTH PHILA    CLOUDY    71  63  75 NE8       30.08R                  
BLUE BELL*     CLOUDY    66  63  90 NE6       30.08R                  
DOYLESTOWN     CLOUDY    66  60  81 NE3       30.08R                  
QUAKERTOWN*    MOCLDY    63  59  88 CALM      30.09                   
PERKASIE*      CLOUDY    63  63 100 NE6       30.10R                  
POTTSTOWN      CLOUDY    63  59  87 NE5       30.10R                  
LANCASTER      MOCLDY    67  57  70 NE8       30.07S                  
COATESVILLE    FAIR      64  59  82 N5        30.08S                  
WEST CHESTER   CLOUDY    68  61  77 NE5       30.07S                  
READING        NOT AVBL                                               
ALLENTOWN      FAIR      59  52  77 CALM      30.10R                  
QN CITY/ALNTWN FAIR      61  54  77 NE7       30.11R                  
MOUNT POCONO   FAIR      52  46  80 NE6       30.13R                  
HAZLETON       FAIR      48  45  87 CALM      30.16S                  
LEHIGHTON      FAIR      50  50 100 CALM      30.13R                  
WILKES BARRE   FAIR      52  49  89 E3        30.13R                  

$$
DEZALL-MDZ008-012-015-019-020-171000-
DELAWARE AND EASTERN MARYLAND
  
CITY           SKY/WX    TMP DP  RH WIND       PRES   REMARKS
WILMINGTON     FAIR      69  64  84 NE8       30.05S                  
CHESWOLD       CLOUDY    70  68  94 E6        30.03R                  
GEORGETOWN     CLOUDY    72  70  93 NW3       30.02R                  
EASTON         FAIR      71  67  89 CALM      30.05S                  
STEVENSVILLE   CLOUDY    70  68  94 NE6       30.01S                  
PATUXENT       CLOUDY    74  72  93 E6        29.99                   
OCEAN CITY     MOCLDY    74  70  87 E8        30.00R                  
WALLOPS ISLAND CLOUDY    70  69  97 N5        29.99S                  
CAMBRIDGE      CLOUDY    72  68  88 NE6       30.01R                  
SALISBURY      CLOUDY    71  68  90 NE5       30.00R                  

$$
PAZ001-021-NYZ056-072-MDZ011-DCZ001-171000-
OTHER NEARBY LOCATIONS
  
CITY           SKY/WX    TMP DP  RH WIND       PRES   REMARKS
HARRISBURG     MOCLDY    68  58  70 VRB3      30.07R                  
STATE COLLEGE  FAIR      59  58  97 NE6       30.13S                  
WILLIAMSPORT   FAIR      55  53  93 CALM      30.12S                  
BINGHAMTON     FAIR      49  45  86 NE5       30.15R                  
NEW YORK CITY  FAIR      64  46  52 NE7       30.12R                  
BALTIMORE      CLOUDY    72  66  81 NE8       30.02R                  
WASHINGTON DC  CLOUDY    74  65  73 NE14      30.01S                  

$$